User: anonymous   Login
Location: Godiavel Galaoual
(15.2485°N, 12.6604°W)
Time: 06:35:38
(UTC+00:00)
Language:

SR - Orbit

View from above orbital plane
View from above orbital plane
View from above satellite
View from above satellite

Ground track
Ground track

The orbit data is extracted from the following two-line orbital elements,

1 00046U 60007B   21165.40267862 -.00000012  00000-0  20698-4 0  9996
2 00046  66.6886 148.4323 0215343 222.8940 135.5201 14.49407232191567
Epoch (UTC): 14 June 2021 09:39:51
Eccentricity: 0.0215343
inclination: 66.6886°
perigee height: 574 km
apogee height: 880 km
right ascension of ascending node: 148.4323°
argument of perigee: 222.8940°
revolutions per day: 14.49407232
mean anomaly at epoch: 135.5201°
orbit number at epoch: 19156

The dashed part of the orbit path shows where the satellite is in the earth's shadow,  

DLR